Location: Gaast
(52.9002°N, 5.8891°E)
Time: 13:49:28
(UTC+00:00)

SAR-Lupe-5 - Visible Passes

Search period start: 14 February 2026 00:00
Search period end: 24 February 2026 00:00
Orbit: 461 x 466 km, 98.1° (Epoch: 26 August)

Date Brightness Start Highest point End Pass type
(mag) Time Alt. Az. Time Alt. Az. Time Alt. Az.
14 Feb 4.5 17:50:14 10° N 17:52:44 65° WNW 17:55:08 10° SSW visible
15 Feb 6.8 18:24:13 10° NNW 18:26:13 21° WNW 18:28:10 10° WSW visible
16 Feb 4.4 17:26:17 10° NNE 17:28:41 45° ESE 17:31:01 10° S visible
17 Feb 5.1 17:59:47 10° N 18:02:12 48° WNW 18:04:32 10° SSW visible
18 Feb 7.2 18:33:46 10° NNW 18:35:29 17° WNW 18:37:13 10° WSW visible
19 Feb 4.0 17:35:27 10° NNE 17:37:52 60° ESE 17:40:14 10° S visible
20 Feb 5.7 18:08:53 10° N 18:11:11 37° WNW 18:13:26 10° SW visible
21 Feb 7.4 18:42:52 10° NNW 18:44:19 14° WNW 18:45:45 10° W visible
22 Feb 3.9 17:44:09 10° NNE 17:46:34 79° ESE 17:48:59 10° SSW visible
23 Feb 6.2 18:17:32 10° N 18:19:42 30° WNW 18:21:53 10° SW visible
